Weather History for Resolute, NU

Change the Weather History Date:

Thursday, August 29, 2013

  Actual Average Record
Temperature  
Mean Temperature 23 °F -  
Max Temperature 28 °F 31 °F 44 °F (2003)
Min Temperature 18 °F 25 °F 18 °F (2013)
Degree Days  
Heating Degree Days 42    
Moisture  
Dew Point 23 °F    
Average Humidity 92    
Maximum Humidity 100    
Minimum Humidity 77    
Precipitation  
Precipitation 0.00 in - - ()
Sea Level Pressure  
Sea Level Pressure 29.80 in    
Wind  
Wind Speed 10 mph ()    
Max Wind Speed 20 mph    
Max Gust Speed -    
Visibility 12.4 miles    
Events Rain , Snow    
Averages and records for this station are not official NWS values.
T = Trace of Precipitation, MM = Missing Value Source: Averaged Metar Reports

Daily Weather History Graph

Daily Weather History Graph

Search for Another Location

Airport:

Trip Planner

Search our weather history database for the weather conditions in past years. The results will help you decide how hot, cold, wet, or windy it might be!

Date:

Astronomy

Aug. 29, 2013 Rise Set
Actual Time 4:38 AM CDT 9:57 PM CDT
Civil Twilight 1:28 AM CDT 12:30 AM CDT
Nautical Twilight Sun does not rise Sun does not rise
Astronomical Twilight Sun does not rise Sun does not rise
Moon No Moon Rise No Moon Set
Length of Visible Light 23h 02m
Length of Day
17h 19m
Last Quarter, 38% of the Moon is Illuminated
Aug 29
Last Quarter
Sep 5
New
Sep 12
First Quarter
Sep 19
Full
Sep 26
Last Quarter

Hourly Weather History & Observations

Time (CDT) Temp. Windchill Dew Point Humidity Pressure Visibility Wind Dir Wind Speed Gust Speed Precip Events Conditions
12:00 AM 24.8 °F 17.9 °F 21.2 °F 86% 29.75 in 15.0 mi NNE 5.8 mph - N/A   Mostly Cloudy
1:00 AM 24 °F - 22 °F 88% 29.76 in 15 mi North 8.1 mph - -   Partly Cloudy
1:00 AM 23.0 °F 13.9 °F 21.2 °F 93% 29.76 in 15.0 mi North 8.1 mph - N/A   Mostly Cloudy
1:37 AM - - - N/A% - 15.0 mi NNE 11.5 mph - N/A   Unknown
2:00 AM 23.0 °F 12.4 °F 21.2 °F 93% 29.77 in 15.0 mi North 10.4 mph - N/A Snow Light Snow
2:17 AM - - - N/A% - 15.0 mi NNE 10.4 mph - N/A   Mostly Cloudy
3:00 AM 19.4 °F 5.5 °F 19.4 °F 100% 29.76 in 15.0 mi NE 15.0 mph - N/A   Partly Cloudy
4:00 AM 19.4 °F 7.2 °F 19.4 °F 100% 29.77 in 15.0 mi NE 11.5 mph - N/A   Partly Cloudy
5:00 AM 19.4 °F 7.9 °F 17.6 °F 93% 29.78 in 15.0 mi NNE 10.4 mph - N/A   Scattered Clouds
6:00 AM 21.2 °F 12.6 °F 21.2 °F 100% 29.79 in 15.0 mi NW 6.9 mph - N/A   Mostly Cloudy
7:00 AM 23 °F - 19 °F 77% 29.80 in 15 mi NNW 10.4 mph - -   Partly Cloudy
7:00 AM 23.0 °F 12.4 °F 19.4 °F 86% 29.80 in 15.0 mi NNW 10.4 mph - N/A   Mostly Cloudy
8:00 AM 23.0 °F 11.7 °F 19.4 °F 86% 29.80 in 15.0 mi North 11.5 mph - N/A   Mostly Cloudy
9:00 AM 23.0 °F 13.1 °F 21.2 °F 93% 29.80 in 15.0 mi North 9.2 mph - N/A   Mostly Cloudy
10:00 AM 24.8 °F 17.9 °F 21.2 °F 86% 29.80 in 15.0 mi North 5.8 mph - N/A   Overcast
10:33 AM - - - N/A% - 15.0 mi NNW 10.4 mph - N/A   Light Freezing Drizzle
11:00 AM 24.8 °F 15.3 °F 21.2 °F 86% 29.80 in 10.0 mi NNW 9.2 mph - N/A   Light Freezing Drizzle
11:49 AM - - - N/A% - 9.0 mi NW 9.2 mph - N/A   Light Freezing Drizzle
12:00 PM 24.8 °F 15.3 °F 24.8 °F 100% 29.80 in 10.0 mi WNW 9.2 mph - N/A   Light Freezing Drizzle
12:23 PM - - - N/A% - 6.0 mi WNW 12.7 mph - N/A   Light Freezing Drizzle
1:00 PM 26 °F - 26 °F 97% 29.80 in 10 mi WNW 2.3 mph - - Rain Light Freezing Drizzle
1:00 PM 26.6 °F 16.8 °F 24.8 °F 93% 29.80 in 10.0 mi WNW 10.4 mph - N/A   Light Freezing Drizzle
1:12 PM - - - N/A% - 1.5 mi WNW 11.5 mph - N/A   Unknown
1:29 PM - - - N/A% - 4.0 mi WNW 10.4 mph - N/A   Unknown
2:00 PM 26.6 °F 16.8 °F 26.6 °F 100% 29.79 in 5.0 mi WNW 10.4 mph - N/A Snow Light Snow
2:29 PM - - - N/A% - 10.0 mi NNW 13.8 mph - N/A   Overcast
2:46 PM - - - N/A% - 6.0 mi NNW 15.0 mph - N/A   Unknown
3:00 PM 28.4 °F 17.0 °F 24.8 °F 86% 29.80 in 10.0 mi NNW 15.0 mph - N/A Snow Light Snow
3:41 PM - - - N/A% - 15.0 mi NNW 15.0 mph - N/A   Overcast
4:00 PM 26.6 °F 13.1 °F 24.8 °F 93% 29.80 in 15.0 mi NNW 19.6 mph - N/A   Overcast
5:00 PM 26.6 °F 13.1 °F 23.0 °F 86% 29.81 in 15.0 mi NNW 19.6 mph - N/A   Overcast
6:00 PM 26.6 °F 13.4 °F 24.8 °F 93% 29.82 in 10.0 mi NNW 18.4 mph - N/A Snow Light Snow Grains
6:42 PM - - - N/A% - 15.0 mi NNW 17.3 mph - N/A   Overcast
7:00 PM 27 °F - 26 °F 96% 29.82 in 15 mi NNW 13.8 mph - - Rain Light Freezing Rain
7:00 PM 26.6 °F 14.3 °F 24.8 °F 93% 29.82 in 15.0 mi NNW 16.1 mph - N/A   Overcast
8:00 PM 26.6 °F 14.7 °F 24.8 °F 93% 29.82 in 15.0 mi NNW 15.0 mph - N/A   Overcast
9:00 PM 26.6 °F 16.2 °F 23.0 °F 86% 29.83 in 15.0 mi North 11.5 mph - N/A   Overcast
10:00 PM 26.6 °F 15.7 °F 24.8 °F 93% 29.82 in 15.0 mi NNW 12.7 mph - N/A   Overcast
10:44 PM - - - N/A% - 15.0 mi NNW 15.0 mph - N/A   Overcast
11:00 PM 26.6 °F 14.7 °F 26.6 °F 100% 29.83 in 6.0 mi NNW 15.0 mph - N/A Snow Light Snow Grains